Temp
13 14 14 14 13 12 11 10 10 9 8 8 8 8 8 7 6 6 5 5 5 5
14 13 13 13 12 11 10 10 9 9 8 9 9 8 7 7 6 6 5 5 4 4
14 12 13 12 11 10 9 9 9 8 8 8 8 7 7 6 5 5 4 4 4 3
13 12 11 10 10 10 9 9 8 8 8 8 7 6 6 5 5 4 4 4 3 3
10 10 9 9 9 8 8 7 7 8 8 7 6 6 6 5 5 4 4 3 3 2
10 10 10 10 9 8 8 7 8 7 6 6 6 6 5 5 5 4 3 3 2 2
10 10 10 9 8 8 8 7 7 6 6 6 5 5 5 5 4 3 3 2 2 1
8 8 8 7 7 7 7 7 6 6 5 5 5 4 4 4 3 3 2 2 1 1
7 7 7 7 7 6 6 6 5 5 4 4 4 4 3 3 2 2 2 1 1 0
7 7 7 6 6 6 5 5 5 4 4 3 3 3 3 3 2 2 1 1 0 -1
7 7 6 6 6 5 5 4 4 4 3 3 3 2 2 2 1 1 1 0 -1 -1
6 6 6 5 5 5 4 4 3 3 3 2 2 2 2 1 0 -0 -0 -1 -1 -2
5 5 5 5 4 4 4 3 3 3 3 2 2 2 1 0 -1 -2 -2 -1 -1 -2
5 5 4 4 4 4 3 3 3 3 3 2 2 2 1 0 -1 -2 -3 -4 -2 -1
Height
820 823 826 830 834 837 839 842 848 851 852 851 854 855 855 853 854 853 852 851 851 850
816 819 822 825 828 831 835 840 842 845 847 850 851 852 852 852 852 850 848 848 848 847
811 815 818 820 825 830 833 839 839 841 847 848 849 849 848 848 848 847 845 845 844 843
808 812 815 820 823 826 831 832 838 839 843 846 846 845 845 844 844 843 842 841 840 839
808 813 817 824 829 832 835 835 835 839 840 841 842 842 841 840 839 838 837 837 836 835
809 815 817 823 824 831 830 834 835 838 839 839 839 838 837 836 834 834 834 833 832 831
806 814 818 820 825 828 830 832 833 835 836 835 835 833 832 831 830 830 829 829 828 826
810 815 820 824 826 829 830 831 832 832 832 831 831 829 828 827 826 825 824 823 822 820
813 819 821 824 826 829 829 830 830 829 829 828 827 826 824 822 821 820 818 817 816 815
816 819 822 824 824 826 827 827 827 826 825 824 822 821 819 817 815 813 812 811 810 808
818 820 822 824 824 824 824 824 823 822 821 819 817 815 813 811 809 807 806 805 804 802
819 821 821 822 822 821 821 820 819 818 816 813 811 809 806 805 803 801 800 799 798 797
818 819 820 820 819 819 818 816 814 812 810 807 804 803 801 799 798 794 792 791 790 789
817 817 818 818 817 815 813 811 809 805 803 801 799 796 795 793 790 788 786 783 781 781
Wind_Speed
24 21 20 22 26 24 23 20 13 9 8 7 7 6 6 6 7 7 5 3 4 8
24 21 25 25 28 26 23 16 12 7 6 11 10 9 7 7 9 7 6 6 7 11
25 23 26 27 29 23 17 8 9 7 12 13 11 10 9 10 9 9 8 8 9 12
25 27 28 28 24 18 13 9 7 13 14 12 14 13 11 12 12 12 11 10 12 13
26 27 24 17 12 3 3 9 11 12 13 14 14 13 14 15 14 14 13 12 14 15
27 21 16 9 10 11 10 11 11 12 11 11 13 15 17 17 17 14 13 15 16 17
25 17 14 11 13 14 12 9 7 7 9 11 13 14 15 16 15 14 16 16 17 18
15 13 15 14 12 8 5 4 7 9 8 8 10 12 14 14 15 17 17 17 17 18
16 16 14 11 6 2 3 6 7 8 9 11 12 13 14 17 19 19 19 19 20 20
18 14 7 2 2 2 6 9 9 10 11 13 15 16 16 16 18 20 20 20 22 22
11 5 3 2 7 9 10 11 11 12 13 16 18 18 19 19 20 21 21 22 22 21
4 3 5 8 10 10 11 12 12 13 15 17 20 19 20 19 20 22 24 23 21 21
2 2 6 10 11 13 14 15 16 18 19 21 25 23 22 20 22 24 25 27 24 22
3 7 9 12 14 15 17 19 22 25 26 26 26 27 24 21 23 26 21 21 28 25
Wind_Direction
213 209 203 199 197 198 193 174 177 185 272 283 225 263 279 304 308 306 306 304 301 309
214 219 203 197 198 187 176 176 183 230 248 224 239 251 275 302 302 283 276 276 297 306
216 205 201 195 177 174 173 187 233 239 221 224 238 256 267 282 266 254 259 273 294 301
195 187 179 171 172 174 185 228 209 203 216 241 248 247 254 265 261 257 262 277 298 296
174 160 153 152 154 238 206 218 196 212 232 241 252 258 264 269 265 263 266 287 295 286
153 152 151 183 227 218 193 198 201 230 250 265 272 276 278 277 274 267 276 287 288 281
159 172 196 192 185 175 178 200 225 255 275 282 282 286 289 284 271 269 279 283 286 283
176 176 163 157 158 169 190 241 284 284 280 288 299 305 296 277 269 274 278 283 291 290
159 149 142 149 147 258 297 293 288 276 287 297 301 307 294 277 273 273 275 285 289 284
140 139 137 133 99 304 289 288 277 279 288 295 299 303 298 290 277 272 274 285 288 288
132 119 112 18 309 280 277 276 283 289 295 300 304 306 299 286 274 270 275 284 285 280
75 122 337 283 281 282 281 283 284 292 301 304 308 313 310 289 278 277 278 280 278 271
22 314 297 295 293 294 289 287 290 293 298 305 307 308 309 291 277 277 278 281 275 267
316 308 302 303 300 301 297 290 292 295 298 295 295 297 295 290 278 273 267 266 277 273